Scroll To Top

SPW Station Historical Data

Daily Summary for April 13, 2024 Units:  English    Metric   Both
Daily Weekly Monthly Yearly
  Current: High: Low: Average:
Temperature: 55.5 °F 56.1 °F 41.2 °F 47 °F
Dew Point: 44.7 °F 46.8 °F 33.2 °F 37.5 °F
Humidity: 67% 75% 56% 70%
Wind Speed: 10mph 15mph 7mph 9.3mph
Wind Gust: 10mph 19mph - -
WindWNW - - West
Pressure: 29.86 in 29.91 in 29.70 in -
Precipitation: 0.00 in      
 
 
Tabular Data for April 13, 2024
Time Temperature Dew Point Pressure Wind Wind Speed Wind Gust Humidity Rainfall Rate (Hourly) solar
00:06 44.1 °F 35.3 °F 29.70 in NW 9 mph 10 mph 71% 0.00 in 0 W/m2
00:10 44.1 °F 35.3 °F 29.70 in NW 10 mph 10 mph 71% 0.00 in 0 W/m2
00:15 44.1 °F 35.6 °F 29.70 in NNW 9 mph 10 mph 72% 0.00 in 0 W/m2
00:20 44 °F 35.6 °F 29.70 in NNW 10 mph 10 mph 72% 0.00 in 0 W/m2
00:25 44 °F 35.6 °F 29.70 in NNE 10 mph 10 mph 72% 0.00 in 0 W/m2
00:30 44 °F 35.6 °F 29.70 in NNE 10 mph 10 mph 72% 0.00 in 0 W/m2
00:35 44 °F 35.6 °F 29.70 in NW 10 mph 12 mph 72% 0.00 in 0 W/m2
00:40 44 °F 35.6 °F 29.70 in NNW 9 mph 17 mph 72% 0.00 in 0 W/m2
00:45 44 °F 35.2 °F 29.70 in NNW 10 mph 17 mph 71% 0.00 in 0 W/m2
00:50 43.9 °F 35.1 °F 29.71 in NW 10 mph 10 mph 71% 0.00 in 0 W/m2
00:55 43.9 °F 35.5 °F 29.70 in North 8 mph 10 mph 72% 0.00 in 0 W/m2
01:00 43.9 °F 35.5 °F 29.71 in NE 9 mph 9 mph 72% 0.00 in 0 W/m2
01:05 43.9 °F 35.5 °F 29.71 in NNE 9 mph 9 mph 72% 0.00 in 0 W/m2
01:10 43.9 °F 35.5 °F 29.71 in NNW 9 mph 14 mph 72% 0.00 in 0 W/m2
01:15 43.9 °F 35.5 °F 29.71 in NNW 9 mph 14 mph 72% 0.00 in 0 W/m2
01:20 43.8 °F 35 °F 29.71 in NNW 9 mph 9 mph 71% 0.00 in 0 W/m2
01:25 43.9 °F 35.1 °F 29.71 in NW 9 mph 9 mph 71% 0.00 in 0 W/m2
01:30 43.8 °F 35.4 °F 29.72 in North 9 mph 9 mph 72% 0.00 in 0 W/m2
01:35 43.8 °F 35.4 °F 29.72 in NNW 9 mph 9 mph 72% 0.00 in 0 W/m2
01:40 43.8 °F 35.4 °F 29.72 in NNW 9 mph 9 mph 72% 0.00 in 0 W/m2
01:45 43.7 °F 35.3 °F 29.72 in North 9 mph 12 mph 72% 0.00 in 0 W/m2
01:50 43.6 °F 35.2 °F 29.72 in North 9 mph 9 mph 72% 0.00 in 0 W/m2
01:55 43.7 °F 35.6 °F 29.72 in NNE 8 mph 9 mph 73% 0.00 in 0 W/m2
02:00 43.6 °F 35.5 °F 29.72 in NNW 7 mph 7 mph 73% 0.00 in 0 W/m2
02:05 43.6 °F 34.8 °F 29.72 in North 8 mph 12 mph 71% 0.00 in 0 W/m2
02:10 43.6 °F 35.2 °F 29.73 in NNW 9 mph 14 mph 72% 0.00 in 0 W/m2
02:15 43.6 °F 35.2 °F 29.73 in NNW 8 mph 14 mph 72% 0.00 in 0 W/m2
02:20 43.6 °F 34.8 °F 29.73 in North 8 mph 14 mph 71% 0.00 in 0 W/m2
02:25 43.6 °F 34.8 °F 29.73 in North 9 mph 14 mph 71% 0.00 in 0 W/m2
02:35 43.6 °F 34.8 °F 29.74 in NW 7 mph 7 mph 71% 0.00 in 0 W/m2
02:40 43.6 °F 35.2 °F 29.74 in NW 7 mph 11 mph 72% 0.00 in 0 W/m2
02:45 43.6 °F 35.2 °F 29.74 in North 7 mph 8 mph 72% 0.00 in 0 W/m2
02:50 43.6 °F 34.8 °F 29.74 in North 8 mph 9 mph 71% 0.00 in 0 W/m2
02:55 43.6 °F 34.8 °F 29.74 in NNW 8 mph 8 mph 71% 0.00 in 0 W/m2
03:00 43.6 °F 34.8 °F 29.74 in NW 8 mph 8 mph 71% 0.00 in 0 W/m2
03:05 43.6 °F 34.5 °F 29.74 in NNE 9 mph 9 mph 70% 0.00 in 0 W/m2
03:10 43.6 °F 34.8 °F 29.75 in NNW 9 mph 9 mph 71% 0.00 in 0 W/m2
03:15 43.6 °F 34.5 °F 29.75 in NE 8 mph 9 mph 70% 0.00 in 0 W/m2
03:20 43.5 °F 34.7 °F 29.75 in North 8 mph 14 mph 71% 0.00 in 0 W/m2
03:25 43.5 °F 34.4 °F 29.75 in NNW 8 mph 14 mph 70% 0.00 in 0 W/m2
03:35 43.4 °F 34.6 °F 29.75 in NNW 8 mph 9 mph 71% 0.00 in 0 W/m2
03:40 43.3 °F 34.5 °F 29.75 in NNE 8 mph 9 mph 71% 0.00 in 0 W/m2
03:45 43.3 °F 34.5 °F 29.75 in West 8 mph 8 mph 71% 0.00 in 0 W/m2
03:51 43.2 °F 34.4 °F 29.75 in North 8 mph 9 mph 71% 0.00 in 0 W/m2
04:00 43.1 °F 34.3 °F 29.76 in NW 8 mph 8 mph 71% 0.00 in 0 W/m2
04:05 43 °F 34.6 °F 29.76 in NNW 8 mph 8 mph 72% 0.00 in 0 W/m2
04:10 42.9 °F 34.1 °F 29.76 in North 9 mph 9 mph 71% 0.00 in 0 W/m2
04:15 42.8 °F 34 °F 29.76 in NNE 9 mph 9 mph 71% 0.00 in 0 W/m2
04:20 42.7 °F 34.3 °F 29.76 in NNE 9 mph 11 mph 72% 0.00 in 0 W/m2
04:25 42.6 °F 34.2 °F 29.76 in NW 9 mph 13 mph 72% 0.00 in 0 W/m2
04:30 42.5 °F 34.1 °F 29.76 in NW 8 mph 8 mph 72% 0.00 in 0 W/m2
04:35 42.5 °F 34.5 °F 29.77 in NNE 8 mph 8 mph 73% 0.00 in 0 W/m2
04:40 42.3 °F 34.3 °F 29.76 in North 7 mph 8 mph 73% 0.00 in 0 W/m2
04:45 42.3 °F 34.3 °F 29.77 in North 7 mph 8 mph 73% 0.00 in 0 W/m2
04:50 42.3 °F 34.3 °F 29.77 in North 8 mph 8 mph 73% 0.00 in 0 W/m2
04:55 42.3 °F 34.3 °F 29.77 in NE 8 mph 8 mph 73% 0.00 in 0 W/m2
05:00 42.2 °F 34.2 °F 29.78 in North 8 mph 8 mph 73% 0.00 in 0 W/m2
05:10 42.2 °F 34.2 °F 29.78 in NNW 9 mph 9 mph 73% 0.00 in 0 W/m2
05:15 42.1 °F 34.4 °F 29.78 in NNW 8 mph 9 mph 74% 0.00 in 0 W/m2
05:20 42.1 °F 34.4 °F 29.79 in NNW 7 mph 7 mph 74% 0.00 in 0 W/m2
05:25 42.1 °F 34.4 °F 29.79 in NNE 8 mph 10 mph 74% 0.00 in 0 W/m2
05:30 42 °F 34 °F 29.79 in NNW 9 mph 9 mph 73% 0.00 in 0 W/m2
05:35 42 °F 34.3 °F 29.79 in NNE 9 mph 9 mph 74% 0.00 in 0 W/m2
05:41 42 °F 34.3 °F 29.80 in NNW 7 mph 9 mph 74% 0.00 in 0 W/m2
05:45 41.9 °F 34.2 °F 29.81 in NE 8 mph 9 mph 74% 0.00 in 0 W/m2
05:50 41.8 °F 34.1 °F 29.81 in NNW 7 mph 14 mph 74% 0.00 in 0 W/m2
05:55 41.8 °F 34.1 °F 29.81 in NNW 8 mph 9 mph 74% 0.00 in 0 W/m2
06:00 41.7 °F 34 °F 29.81 in NNW 9 mph 10 mph 74% 0.00 in 0 W/m2
06:05 41.7 °F 34 °F 29.82 in NNW 8 mph 10 mph 74% 0.00 in 0 W/m2
06:15 41.6 °F 33.9 °F 29.82 in NNW 8 mph 8 mph 74% 0.00 in 0 W/m2
06:20 41.6 °F 33.9 °F 29.82 in North 8 mph 11 mph 74% 0.00 in 0 W/m2
06:25 41.5 °F 33.8 °F 29.82 in NW 8 mph 8 mph 74% 0.00 in 0 W/m2
06:30 41.4 °F 33.7 °F 29.83 in North 8 mph 11 mph 74% 0.00 in 0 W/m2
06:35 41.5 °F 33.8 °F 29.83 in North 8 mph 8 mph 74% 0.00 in 0 W/m2
06:40 41.4 °F 33.7 °F 29.83 in NW 8 mph 8 mph 74% 0.00 in 0 W/m2
06:45 41.4 °F 33.7 °F 29.83 in NNW 8 mph 8 mph 74% 0.00 in 0 W/m2
06:50 41.4 °F 34.1 °F 29.83 in NW 8 mph 10 mph 75% 0.00 in 0 W/m2
07:00 41.3 °F 33.6 °F 29.84 in NNW 7 mph 7 mph 74% 0.00 in 7 W/m2
07:10 41.2 °F 33.9 °F 29.85 in NNE 7 mph 7 mph 75% 0.00 in 12 W/m2
07:15 41.2 °F 33.9 °F 29.85 in NW 8 mph 15 mph 75% 0.00 in 14 W/m2
07:20 41.2 °F 33.5 °F 29.85 in North 8 mph 8 mph 74% 0.00 in 18 W/m2
07:25 41.3 °F 33.6 °F 29.85 in NW 8 mph 8 mph 74% 0.00 in 19 W/m2
07:30 41.3 °F 33.6 °F 29.85 in NNW 7 mph 14 mph 74% 0.00 in 23 W/m2
07:35 41.3 °F 33.6 °F 29.86 in NW 7 mph 14 mph 74% 0.00 in 35 W/m2
07:40 41.3 °F 33.6 °F 29.87 in NNW 8 mph 8 mph 74% 0.00 in 56 W/m2
07:50 41.5 °F 33.8 °F 29.87 in NNW 8 mph 10 mph 74% 0.00 in 37 W/m2
07:55 41.5 °F 33.5 °F 29.87 in NNW 7 mph 10 mph 73% 0.00 in 37 W/m2
08:00 41.6 °F 33.2 °F 29.87 in NW 8 mph 10 mph 72% 0.00 in 46 W/m2
08:05 41.7 °F 33.7 °F 29.88 in NNW 9 mph 10 mph 73% 0.00 in 51 W/m2
08:10 41.8 °F 33.4 °F 29.88 in North 8 mph 13 mph 72% 0.00 in 58 W/m2
08:20 42 °F 33.6 °F 29.88 in North 9 mph 10 mph 72% 0.00 in 123 W/m2
08:25 42.2 °F 33.8 °F 29.88 in North 8 mph 10 mph 72% 0.00 in 162 W/m2
08:30 42.3 °F 33.6 °F 29.88 in NNW 7 mph 10 mph 71% 0.00 in 229 W/m2
08:40 42.7 °F 33.6 °F 29.89 in North 7 mph 7 mph 70% 0.00 in 257 W/m2
08:45 43 °F 33.9 °F 29.89 in NNE 7 mph 8 mph 70% 0.00 in 272 W/m2
08:55 43.5 °F 34 °F 29.89 in NNW 8 mph 8 mph 69% 0.00 in 302 W/m2
09:05 43.7 °F 33.8 °F 29.89 in NNW 7 mph 7 mph 68% 0.00 in 334 W/m2
09:10 44 °F 34.1 °F 29.89 in NW 8 mph 8 mph 68% 0.00 in 350 W/m2
09:15 44.2 °F 35 °F 29.89 in WNW 8 mph 8 mph 70% 0.00 in 364 W/m2
09:20 44.4 °F 34.5 °F 29.89 in North 7 mph 12 mph 68% 0.00 in 376 W/m2
09:30 44.6 °F 34.3 °F 29.90 in NW 8 mph 10 mph 67% 0.00 in 406 W/m2
09:35 45.1 °F 35.2 °F 29.89 in WNW 8 mph 10 mph 68% 0.00 in 422 W/m2
09:55 45.8 °F 34.7 °F 29.90 in NW 7 mph 15 mph 65% 0.00 in 478 W/m2
10:00 45.8 °F 34.7 °F 29.90 in NW 8 mph 10 mph 65% 0.00 in 492 W/m2
10:05 46 °F 34.5 °F 29.90 in NNW 8 mph 10 mph 64% 0.00 in 504 W/m2
10:20 47 °F 35.4 °F 29.90 in WNW 8 mph 12 mph 64% 0.00 in 543 W/m2
10:35 47.4 °F 35.4 °F 29.90 in North 7 mph 9 mph 63% 0.00 in 580 W/m2
10:40 47.8 °F 35.8 °F 29.90 in NNW 7 mph 9 mph 63% 0.00 in 592 W/m2
10:45 47.7 °F 35.7 °F 29.90 in North 7 mph 7 mph 63% 0.00 in 605 W/m2
10:51 47.7 °F 36.5 °F 29.90 in NW 8 mph 11 mph 65% 0.00 in 613 W/m2
10:55 47.8 °F 36.2 °F 29.90 in NNW 8 mph 8 mph 64% 0.00 in 628 W/m2
11:00 48 °F 36.4 °F 29.90 in NNW 9 mph 9 mph 64% 0.00 in 636 W/m2
11:05 48.4 °F 36.8 °F 29.90 in NNW 9 mph 9 mph 64% 0.00 in 647 W/m2
11:11 48.3 °F 36.3 °F 29.90 in NNW 9 mph 10 mph 63% 0.00 in 659 W/m2
11:21 49 °F 37.3 °F 29.91 in NNW 9 mph 9 mph 64% 0.00 in 679 W/m2
11:25 49.5 °F 37.8 °F 29.90 in NNW 9 mph 9 mph 64% 0.00 in 687 W/m2
11:30 49.6 °F 38.7 °F 29.91 in WNW 10 mph 10 mph 66% 0.00 in 698 W/m2
11:40 50 °F 40.2 °F 29.91 in NW 10 mph 15 mph 69% 0.00 in 714 W/m2
11:45 50.8 °F 40.2 °F 29.91 in NW 11 mph 19 mph 67% 0.00 in 722 W/m2
11:55 50.3 °F 39.4 °F 29.91 in WNW 10 mph 10 mph 66% 0.00 in 740 W/m2
12:00 50.5 °F 39.6 °F 29.91 in NW 10 mph 10 mph 66% 0.00 in 747 W/m2
12:05 51.2 °F 40.6 °F 29.91 in NW 10 mph 10 mph 67% 0.00 in 754 W/m2
12:10 50.9 °F 40.7 °F 29.91 in NW 11 mph 11 mph 68% 0.00 in 763 W/m2
12:25 51.6 °F 39.8 °F 29.91 in WNW 11 mph 11 mph 64% 0.00 in 779 W/m2
12:31 52.1 °F 39.1 °F 29.91 in NW 11 mph 11 mph 61% 0.00 in 786 W/m2
12:35 51.7 °F 38.7 °F 29.91 in WNW 10 mph 14 mph 61% 0.00 in 791 W/m2
12:45 52.4 °F 41.4 °F 29.91 in WNW 13 mph 14 mph 66% 0.00 in 798 W/m2
12:51 52.7 °F 42 °F 29.91 in NW 13 mph 14 mph 67% 0.00 in 805 W/m2
12:55 52.8 °F 40.5 °F 29.91 in NW 13 mph 13 mph 63% 0.00 in 807 W/m2
13:06 53.2 °F 40.9 °F 29.91 in West 12 mph 13 mph 63% 0.00 in 814 W/m2
13:16 52.9 °F 41.8 °F 29.91 in NW 12 mph 12 mph 66% 0.00 in 819 W/m2
13:20 52.6 °F 42.3 °F 29.91 in WNW 13 mph 14 mph 68% 0.00 in 819 W/m2
13:25 52.8 °F 41.7 °F 29.91 in WNW 14 mph 15 mph 66% 0.00 in 823 W/m2
13:31 53.2 °F 42.1 °F 29.91 in WNW 15 mph 15 mph 66% 0.00 in 823 W/m2
13:35 53.6 °F 42.5 °F 29.90 in NW 14 mph 15 mph 66% 0.00 in 824 W/m2
13:40 54.4 °F 42.5 °F 29.90 in WNW 13 mph 15 mph 64% 0.00 in 824 W/m2
13:46 54.5 °F 41.7 °F 29.90 in WNW 13 mph 13 mph 62% 0.00 in 826 W/m2
13:56 54.1 °F 42.2 °F 29.90 in WNW 12 mph 17 mph 64% 0.00 in 824 W/m2
14:00 54.4 °F 42.9 °F 29.90 in WNW 12 mph 15 mph 65% 0.00 in 824 W/m2
14:05 54.6 °F 43.1 °F 29.90 in WNW 12 mph 15 mph 65% 0.00 in 821 W/m2
14:11 55.4 °F 42.2 °F 29.90 in NW 13 mph 13 mph 61% 0.00 in 821 W/m2
14:15 55.2 °F 39.8 °F 29.90 in NW 12 mph 13 mph 56% 0.00 in 817 W/m2
14:20 55.1 °F 40.6 °F 29.90 in NW 11 mph 13 mph 58% 0.00 in 814 W/m2
14:30 55.5 °F 42.7 °F 29.90 in WNW 11 mph 14 mph 62% 0.00 in 805 W/m2
14:40 54.2 °F 43.9 °F 29.90 in WNW 13 mph 16 mph 68% 0.00 in 800 W/m2
14:50 54.1 °F 44.5 °F 29.90 in WNW 13 mph 13 mph 70% 0.00 in 791 W/m2
14:55 54.4 °F 42.5 °F 29.90 in WNW 13 mph 15 mph 64% 0.00 in 784 W/m2
15:00 55.2 °F 42.8 °F 29.90 in NW 13 mph 13 mph 63% 0.00 in 779 W/m2
15:05 55 °F 44.2 °F 29.90 in WNW 13 mph 13 mph 67% 0.00 in 772 W/m2
15:10 54.2 °F 42.3 °F 29.90 in WNW 12 mph 12 mph 64% 0.00 in 768 W/m2
15:15 55.1 °F 44.3 °F 29.90 in NW 13 mph 15 mph 67% 0.00 in 761 W/m2
15:20 54.9 °F 44.9 °F 29.89 in WNW 13 mph 13 mph 69% 0.00 in 751 W/m2
15:25 54.7 °F 44.7 °F 29.90 in WNW 13 mph 13 mph 69% 0.00 in 745 W/m2
15:30 54.6 °F 45.4 °F 29.90 in WNW 13 mph 13 mph 71% 0.00 in 737 W/m2
15:35 54.3 °F 44.7 °F 29.89 in WNW 12 mph 13 mph 70% 0.00 in 728 W/m2
15:40 55 °F 44.2 °F 29.89 in WNW 11 mph 11 mph 67% 0.00 in 721 W/m2
15:45 55.1 °F 43.9 °F 29.89 in WNW 11 mph 11 mph 66% 0.00 in 714 W/m2
15:50 56 °F 44.4 °F 29.89 in West 10 mph 12 mph 65% 0.00 in 705 W/m2
15:55 55.2 °F 44.4 °F 29.89 in WNW 10 mph 12 mph 67% 0.00 in 693 W/m2
16:00 54.7 °F 42.8 °F 29.89 in WNW 11 mph 11 mph 64% 0.00 in 684 W/m2
16:05 54.8 °F 45.2 °F 29.88 in WNW 11 mph 11 mph 70% 0.00 in 673 W/m2
16:10 54.6 °F 45.4 °F 29.88 in WNW 11 mph 11 mph 71% 0.00 in 663 W/m2
16:15 54.6 °F 46.1 °F 29.88 in WNW 10 mph 11 mph 73% 0.00 in 652 W/m2
16:25 54.4 °F 44.4 °F 29.88 in NW 9 mph 9 mph 69% 0.00 in 628 W/m2
16:30 54.8 °F 45.2 °F 29.88 in WNW 9 mph 11 mph 70% 0.00 in 617 W/m2
16:35 55.3 °F 44.9 °F 29.88 in WNW 9 mph 10 mph 68% 0.00 in 605 W/m2
16:40 56.1 °F 46.8 °F 29.88 in WNW 10 mph 10 mph 71% 0.00 in 592 W/m2
17:00 55.7 °F 46.4 °F 29.87 in WNW 9 mph 10 mph 71% 0.00 in 541 W/m2
17:05 54.9 °F 44.9 °F 29.87 in WNW 9 mph 10 mph 69% 0.00 in 527 W/m2
17:10 54.7 °F 45.5 °F 29.87 in WNW 8 mph 9 mph 71% 0.00 in 512 W/m2
17:15 55.2 °F 45.6 °F 29.87 in WNW 9 mph 12 mph 70% 0.00 in 501 W/m2
17:25 55.3 °F 43.7 °F 29.87 in WNW 11 mph 11 mph 65% 0.00 in 473 W/m2
17:30 55.5 °F 44.7 °F 29.86 in West 10 mph 11 mph 67% 0.00 in 459 W/m2
17:35 55.5 °F 44.3 °F 29.86 in WNW 10 mph 12 mph 66% 0.00 in 445 W/m2
17:40 55.4 °F 43.8 °F 29.86 in WNW 10 mph 12 mph 65% 0.00 in 429 W/m2
17:45 55.5 °F 44.7 °F 29.86 in WNW 10 mph 10 mph 67% 0.00 in 417 W/m2
Compliments of Weather Underground - 2 mb